Location: Unspecified
(42.9300°N, 71.1866°W)
Time: 16:55:47

Hubble Space Telescope - Visible Passes

Search period start: 01 December 2015 00:00
Search period end: 11 December 2015 00:00
Orbit: 540 x 544 km, 28.5° (Epoch: 01 December)

Date Brightness Start Highest point End Pass type
(mag) Time Alt. Az. Time Alt. Az. Time Alt. Az.
07 Dec 3.6 06:22:36 10° SSW 06:23:37 11° S 06:24:37 10° SSE visible
08 Dec 3.5 06:13:07 10° SSW 06:14:13 11° S 06:15:20 10° SSE visible
09 Dec 3.5 06:03:48 10° SSW 06:04:49 11° S 06:05:50 10° SSE visible
10 Dec 3.5 05:54:45 10° SSW 05:55:26 10° S 05:56:06 10° S visible
